Powrót do katalogu

STARLINK-31774

AktywnyŁącznośćVLEO
NORAD 59622·PAYLOAD·🇺🇸 United States

Wystrzelony Apr 28, 2024 z Cape Canaveral Space Force Station

Loading…

Następne Przeloty (najbliższe 24 godziny)

TLE

ŚwieżeSource: CelesTrak SupGP

Epoka: Sep 14, 2026, 20:42 UTC

1 59622C 24080X   26257.86298611  .00054091  00000+0  19600-2 0  2574
2 59622  43.0045  46.2205 0001502 278.8830  51.8158 15.27537949    16

Śledź STARLINK-31774 w czasie rzeczywistym z AllMySat

Download on the App Store